Home > Weather > Theni > Past weeks

Flag for India Weather for the Past 2 Weeks in Theni, Tamil Nadu, India

Now
91 °F

Passing clouds.


Feels Like: 88 °F
Forecast: 67 / 95 °F
Wind: 7 mph from East

Location: Coimbatore / Peelamedu

Current Time: Feb 13, 2016 at 5:07:51 PM

Latest Report: Feb 13, 2016 at 4:30 PM


Visibility: 4 mi

Pressure: 29.83 "Hg

Humidity: 24%

Dew point: 50 °F

Location of TheniLocation

Historic Weather in Theni — Graph

°F

Theni Temperature Yesterday

Maximum temperature yesterday: 91 °F (at 1:30 PM)
Minimum temperature yesterday: 72 °F (at 6:30 AM)
Average temperature yesterday: 83 °F

High & Low Weather Summary for the Past Weeks

 TemperatureHumidityPressure
High93 °F (Feb 11, 2:30 PM)88% (Feb 1, 7:30 AM)30.09 "Hg (Feb 1, 7:30 AM)
Low64 °F (Feb 2, 7:00 AM)15% (Feb 2, 3:30 PM)29.86 "Hg (Feb 6, 2:30 PM)
Average81 °F51%29.97 "Hg
* Reported Jan 29 3:30 PM — Feb 13 4:00 PM, Theni, Weather by CustomWeather, © 2016

Note: Actual official high and low records may vary slightly from our data, if they occured in-between our weather recording intervals... More about our weather records

Advertising

Theni Weather History for the Previous 24 Hours

 ConditionsComfort  
Time TempWeatherWind HumidityBarometerVisibility
4:00 PM
Sat, Feb 13
91 °FPassing clouds.9 mph26%29.86 "Hg5 mi
3:30 PM93 °FPassing clouds.7 mph24%29.86 "Hg5 mi
3:00 PM93 °FPassing clouds.6 mph24%29.86 "Hg5 mi
2:30 PM91 °FPassing clouds.6 mph26%29.86 "Hg5 mi
2:00 PM91 °FPassing clouds.N/A30%29.89 "Hg5 mi
1:30 PM91 °FClear.5 mph30%29.92 "Hg5 mi
1:00 PM91 °FClear.No wind28%29.95 "Hg4 mi
12:30 PM88 °FPassing clouds.5 mph35%29.98 "Hg4 mi
12:00 PM88 °FHaze.6 mph33%29.98 "Hg3 mi
11:00 AM84 °FHaze.3 mph37%30.04 "Hg3 mi
10:30 AM82 °FHaze.3 mph40%30.04 "Hg3 mi
10:00 AM81 °FHaze.7 mph45%30.04 "Hg3 mi
9:30 AM79 °FHaze.5 mph48%30.04 "Hg2 mi
8:30 AM75 °FHaze.2 mph57%30.01 "Hg2 mi
8:00 AM73 °FHaze.No wind69%30.01 "Hg2 mi
7:30 AM72 °FHaze.No wind73%29.98 "Hg2 mi
7:00 AM72 °FHaze.No wind69%29.98 "Hg2 mi
6:30 AM72 °FHaze.No wind69%29.98 "Hg2 mi
5:30 AM72 °FHaze.No wind69%29.95 "Hg2 mi
5:00 AM75 °FHaze.No wind65%29.92 "Hg2 mi
4:30 AM75 °FHaze.No wind65%29.92 "Hg2 mi
2:30 AM75 °FHaze.No wind65%29.95 "Hg3 mi
11:30 PM
Fri, Feb 12
79 °FHaze.5 mph48%29.95 "Hg3 mi
10:00 PM81 °FHaze.5 mph51%29.95 "Hg3 mi
9:00 PM82 °FHaze.6 mph45%29.92 "Hg3 mi
8:30 PM82 °FHaze.5 mph45%29.92 "Hg3 mi
7:30 PM86 °FHaze.6 mph38%29.89 "Hg3 mi
7:00 PM88 °FHaze.3 mph35%29.89 "Hg3 mi
6:30 PM88 °FHaze.5 mph33%29.86 "Hg3 mi
6:00 PM90 °FHaze.5 mph31%29.86 "Hg3 mi
5:30 PM90 °FClear.7 mph29%29.86 "Hg4 mi
5:00 PM91 °FClear.3 mph30%29.86 "Hg4 mi
Weather by CustomWeather, © 2016

See weather overviewHow to use our weather pages